TimeEDT,TemperatureF,Dew PointF,Humidity,Sea Level PressureIn,VisibilityMPH,Wind Direction,Wind SpeedMPH,Gust SpeedMPH,PrecipitationIn,Events,Conditions,WindDirDegrees,DateUTC
12:53 AM,79.0,75.9,90,29.94,10.0,East,4.6,-,N/A,,Clear,80,2013-08-07 04:53:00
1:53 AM,78.1,73.9,87,29.92,10.0,East,3.5,-,N/A,,Clear,90,2013-08-07 05:53:00
2:53 AM,78.1,73.9,87,29.91,10.0,Calm,Calm,-,N/A,,Clear,0,2013-08-07 06:53:00
3:53 AM,77.0,73.9,90,29.90,10.0,Calm,Calm,-,N/A,,Clear,0,2013-08-07 07:53:00
4:53 AM,77.0,73.9,90,29.90,10.0,East,3.5,-,N/A,,Clear,90,2013-08-07 08:53:00
5:53 AM,77.0,73.9,90,29.91,9.0,East,5.8,-,N/A,,Clear,80,2013-08-07 09:53:00
6:53 AM,75.9,73.9,94,29.92,9.0,Calm,Calm,-,N/A,,Clear,0,2013-08-07 10:53:00
7:53 AM,78.1,75.0,90,29.94,10.0,Calm,Calm,-,N/A,,Clear,0,2013-08-07 11:53:00
8:53 AM,82.0,75.9,82,29.94,10.0,East,6.9,-,N/A,,Clear,90,2013-08-07 12:53:00
9:53 AM,84.9,75.9,74,29.95,10.0,ESE,10.4,-,N/A,,Clear,110,2013-08-07 13:53:00
10:53 AM,88.0,75.9,67,29.95,10.0,ESE,8.1,-,N/A,,Clear,110,2013-08-07 14:53:00
11:53 AM,89.1,75.0,63,29.95,10.0,East,8.1,-,N/A,,Partly Cloudy,90,2013-08-07 15:53:00
12:53 PM,91.0,75.0,59,29.94,10.0,ESE,6.9,-,N/A,,Mostly Cloudy,120,2013-08-07 16:53:00
1:53 PM,90.0,77.0,65,29.94,10.0,West,9.2,-,N/A,,Mostly Cloudy,270,2013-08-07 17:53:00
2:15 PM,84.2,78.8,84,29.93,1.8,WNW,10.4,-,0.02,Rain,Heavy Rain,290,2013-08-07 18:15:00
2:21 PM,84.2,78.8,84,29.93,3.0,NW,10.4,-,0.04,Rain,Light Rain,320,2013-08-07 18:21:00
2:53 PM,79.0,73.9,84,29.93,5.0,SW,10.4,27.6,0.12,Rain,Light Rain,230,2013-08-07 18:53:00
3:53 PM,84.9,75.9,74,29.91,10.0,SSW,10.4,-,0.15,,Mostly Cloudy,200,2013-08-07 19:53:00
4:53 PM,87.1,75.0,67,29.90,10.0,SW,6.9,-,0.06,,Clear,230,2013-08-07 20:53:00
5:53 PM,88.0,78.1,72,29.90,10.0,WNW,8.1,-,0.01,,Partly Cloudy,290,2013-08-07 21:53:00
6:23 PM,75.2,71.6,89,29.94,1.8,East,18.4,34.5,0.01,Rain,Heavy Rain,80,2013-08-07 22:23:00
6:27 PM,73.4,69.8,88,29.94,1.2,East,17.3,-,0.02,Rain,Heavy Rain,80,2013-08-07 22:27:00
6:41 PM,73.4,71.6,94,29.94,2.0,ESE,6.9,-,0.05,Rain,Heavy Rain,110,2013-08-07 22:41:00
6:50 PM,73.4,71.6,94,29.93,4.0,Calm,Calm,-,0.08,Rain,Rain,0,2013-08-07 22:50:00
6:53 PM,73.9,71.1,91,29.93,5.0,SSW,3.5,-,0.08,Rain-Thunderstorm,Thunderstorms and Rain,200,2013-08-07 22:53:00
7:53 PM,75.9,73.0,91,29.93,10.0,East,6.9,18.4,0.14,Rain-Thunderstorm,Light Rain,100,2013-08-07 23:53:00
8:29 PM,75.2,73.4,94,29.94,10.0,North,4.6,-,0.07,Rain-Thunderstorm,Light Rain,10,2013-08-08 00:29:00
8:50 PM,77.0,73.4,89,29.93,10.0,East,5.8,-,0.10,,Mostly Cloudy,90,2013-08-08 00:50:00
8:53 PM,77.0,73.9,90,29.93,10.0,ESE,6.9,-,0.11,,Scattered Clouds,110,2013-08-08 00:53:00
9:21 PM,77.0,75.2,94,29.93,10.0,SE,3.5,-,0.04,Rain-Thunderstorm,Light Thunderstorms and Rain,130,2013-08-08 01:21:00
9:31 PM,77.0,75.2,94,29.93,10.0,Calm,Calm,-,0.05,Rain-Thunderstorm,Light Rain,0,2013-08-08 01:31:00
9:53 PM,77.0,75.0,94,29.92,10.0,Calm,Calm,-,0.08,Rain,Light Rain,0,2013-08-08 01:53:00
10:53 PM,77.0,75.0,94,29.95,10.0,ESE,3.5,-,0.07,,Clear,110,2013-08-08 02:53:00
11:53 PM,77.0,75.0,94,29.96,10.0,East,4.6,-,0.05,,Partly Cloudy,90,2013-08-08 03:53:00